Location: Stoke Bliss
(52.2667°N, 2.5167°W)
Time: 14:35:34
(UTC+00:00)

Cosmos 2219 Rocket - Pass Details

Date: 03 March 2021
Orbit: 826 x 848 km, 71.0° (Epoch: 13 April)

Event Time Altitude Azimuth Distance (km) Brightness Sun altitude
Rises 19:25:10 0° 172° (S) 3,355 5.2 -14.8°
Reaches altitude 10° 19:27:54 10° 161° (SSE) 2,428 4.3 -15.2°
Maximum altitude 19:32:31 28° 104° (ESE) 1,529 2.9 -15.9°
Drops below altitude 10° 19:37:11 10° 48° (NE) 2,453 4.3 -16.6°
Sets 19:39:56 0° 37° (NE) 3,395 5.1 -17.0°
